Weather History for Lee's Summit, MO

Change the Weather History Date:

Friday, April 12, 2013

  Actual Average (KMKC) Record (KMKC)
Temperature  
Mean Temperature 42 °F -  
Max Temperature 52 °F 63 °F 84 °F (2014)
Min Temperature 33 °F 44 °F 32 °F (1997)
Degree Days  
Heating Degree Days 22    
Moisture  
Dew Point 28 °F    
Average Humidity 62    
Maximum Humidity 75    
Minimum Humidity 44    
Precipitation  
Precipitation 0.00 in - - ()
Sea Level Pressure  
Sea Level Pressure 29.91 in    
Wind  
Wind Speed 11 mph (WNW)    
Max Wind Speed 16 mph    
Max Gust Speed 23 mph    
Visibility 10 miles    
Events      
Averages and records for this station are not official NWS values.
T = Trace of Precipitation, MM = Missing Value Source: NWS Daily Summary

Daily Weather History Graph

Daily Weather History Graph

Search for Another Location

Airport:

Trip Planner

Search our weather history database for the weather conditions in past years. The results will help you decide how hot, cold, wet, or windy it might be!

Date:

Astronomy

Apr. 12, 2013 Rise Set
Actual Time 6:44 AM CDT 7:52 PM CDT
Civil Twilight 6:17 AM CDT 8:19 PM CDT
Nautical Twilight 5:44 AM CDT 8:52 PM CDT
Astronomical Twilight 5:10 AM CDT 9:26 PM CDT
Moon 7:56 AM CDT (4/12) 10:22 PM CDT (4/12)
Length of Visible Light 14h 01m
Length of Day
13h 07m
Waxing Crescent, 5% of the Moon is Illuminated
Apr 12
Waxing Crescent
Apr 18
First Quarter
Apr 25
Full
May 2
Last Quarter
May 9
New

Hourly Weather History & Observations

Time (CDT) Temp. Windchill Dew Point Humidity Pressure Visibility Wind Dir Wind Speed Gust Speed Precip Events Conditions
12:53 AM 35.1 °F 27.9 °F 25.0 °F 67% 29.79 in 10.0 mi WSW 9.2 mph - N/A   Clear
1:53 AM 35.1 °F 27.4 °F 24.1 °F 64% 29.79 in 10.0 mi West 10.4 mph - N/A   Clear
2:53 AM 35.1 °F 26.4 °F 26.1 °F 70% 29.80 in 10.0 mi WNW 12.7 mph - N/A   Overcast
3:53 AM 34.0 °F 27.2 °F 26.1 °F 73% 29.80 in 10.0 mi West 8.1 mph - N/A   Mostly Cloudy
4:25 AM 33.8 °F 25.3 °F 26.6 °F 75% 29.79 in 10.0 mi West 11.5 mph - N/A   Mostly Cloudy
4:53 AM 33.1 °F 25.5 °F 26.1 °F 75% 29.81 in 10.0 mi West 9.2 mph 18.4 mph N/A   Scattered Clouds
5:29 AM 33.8 °F 25.3 °F 26.6 °F 75% 29.80 in 10.0 mi West 11.5 mph - N/A   Overcast
5:53 AM 33.1 °F 24.9 °F 26.1 °F 75% 29.82 in 10.0 mi West 10.4 mph - N/A   Overcast
6:53 AM 33.1 °F 24.9 °F 25.0 °F 72% 29.84 in 10.0 mi West 10.4 mph - N/A   Overcast
7:53 AM 33.1 °F 24.9 °F 26.1 °F 75% 29.87 in 10.0 mi West 10.4 mph - N/A   Overcast
8:50 AM 35.6 °F 26.2 °F 26.6 °F 70% 29.86 in 10.0 mi West 15.0 mph - N/A   Scattered Clouds
8:53 AM 35.1 °F 26.4 °F 26.1 °F 70% 29.88 in 10.0 mi West 12.7 mph 23.0 mph N/A   Mostly Cloudy
9:53 AM 36.0 °F 26.7 °F 27.0 °F 70% 29.91 in 10.0 mi West 15.0 mph 20.7 mph N/A   Overcast
10:53 AM 37.9 °F 29.6 °F 28.0 °F 68% 29.94 in 10.0 mi West 13.8 mph 18.4 mph N/A   Overcast
11:10 AM 39.2 °F 30.5 °F 28.4 °F 65% 29.92 in 10.0 mi WNW 16.1 mph - N/A   Overcast
11:44 AM 39.2 °F 31.2 °F 28.4 °F 65% 29.93 in 10.0 mi WNW 13.8 mph - N/A   Overcast
11:53 AM 41.0 °F 34.3 °F 28.0 °F 60% 29.95 in 10.0 mi WNW 11.5 mph 18.4 mph N/A   Overcast
12:14 PM 39.2 °F 30.8 °F 26.6 °F 61% 29.94 in 10.0 mi WNW 15.0 mph 20.7 mph N/A   Overcast
12:53 PM 42.1 °F 35.2 °F 27.0 °F 55% 29.96 in 10.0 mi WNW 12.7 mph 18.4 mph N/A   Overcast
1:53 PM 45.0 °F 39.3 °F 28.9 °F 53% 29.96 in 10.0 mi West 11.5 mph 18.4 mph N/A   Overcast
2:53 PM 46.0 °F 41.0 °F 28.9 °F 51% 29.97 in 10.0 mi NW 10.4 mph - N/A   Mostly Cloudy
3:53 PM 50.0 °F - 30.0 °F 46% 29.95 in 10.0 mi WNW 15.0 mph 19.6 mph N/A   Partly Cloudy
4:53 PM 51.1 °F - 30.0 °F 44% 29.95 in 10.0 mi NW 9.2 mph - N/A   Clear
5:53 PM 52.0 °F - 30.9 °F 45% 29.95 in 10.0 mi WNW 6.9 mph - N/A   Partly Cloudy
6:53 PM 51.1 °F - 30.0 °F 44% 29.95 in 10.0 mi WNW 8.1 mph - N/A   Scattered Clouds
7:53 PM 46.9 °F - 30.0 °F 52% 29.96 in 10.0 mi NW 6.9 mph - N/A   Clear
8:53 PM 46.0 °F 41.9 °F 30.9 °F 56% 30.00 in 10.0 mi NW 8.1 mph - N/A   Mostly Cloudy
9:53 PM 45.0 °F 41.2 °F 30.9 °F 58% 30.02 in 10.0 mi NNW 6.9 mph - N/A   Clear
10:53 PM 43.0 °F 39.5 °F 30.0 °F 60% 30.04 in 10.0 mi NNW 5.8 mph - N/A   Clear
11:53 PM 43.0 °F - 30.0 °F 60% 30.04 in 10.0 mi Calm Calm - N/A   Clear